• Join FlightAware (Why Join?)
  • Login
  • US Flag 
07:30PM EST


 

Airport Tracker/Info


-or-


 

Live Flight TrackerFlight Track Log ✈ SWA484 ✈ 03-May-2013 ✈ KMCO - KBDL

Flight Track Log - Related Links

Times and Time Zones

All times are in EDT time to prevent confusion due to time zone crossing. See the SWA484 flight status page for this flight to view local times or setup timezone preferences in your user account.

Time Position Orientation Groundspeed Altitude Reporting Facility
EDT Latitude Longitude Course Direction KTS MPH feet Rate Location/Type
09:37AM 28.4333 -81.3000 19° North 174 200 500  Level Orlando TRACON
09:39AM 28.5167 -81.2667 19° North 218 251 4,000 2,280 Climbing Orlando TRACON
09:40AM 28.5833 -81.2333 24° Northeast 261 300 6,200 1,740 Climbing Orlando TRACON
09:42AM 28.7197 -81.2567 351° North 269 310 9,500 1,800 Climbing Jacksonville Center
09:43AM 28.8014 -81.2861 342° North 285 328 11,800 2,700 Climbing Jacksonville Center
09:44AM 28.8978 -81.3203 343° North 324 373 14,900 2,880 Climbing Jacksonville Center
09:45AM 29.0006 -81.3542 344° North 360 414 17,600 2,700 Climbing Jacksonville Center
09:46AM 29.1033 -81.3883 344° North 382 440 20,300 2,340 Climbing Jacksonville Center
09:47AM 29.2183 -81.4128 349° North 395 455 22,300 2,100 Climbing Jacksonville Center
09:48AM 29.3339 -81.4728 336° Northwest 424 488 24,600 2,100 Climbing Jacksonville Center
09:49AM 29.4492 -81.5283 337° Northwest 441 507 26,600 1,800 Climbing Jacksonville Center
09:50AM 29.5689 -81.5864 337° Northwest 453 521 28,200 1,500 Climbing Jacksonville Center
09:51AM 29.7006 -81.6181 348° North 469 540 29,700 1,440 Climbing Jacksonville Center
09:52AM 29.8339 -81.5950 North 464 534 31,100 1,680 Climbing Jacksonville Center
09:53AM 29.9694 -81.5739 North 476 548 33,100 1,920 Climbing Jacksonville Center
09:54AM 30.1008 -81.5481 10° North 476 548 35,000 900 Climbing Jacksonville Center
09:55AM 30.2342 -81.5244 North 482 555 35,000  Level Jacksonville Center
09:56AM 30.3675 -81.5033 North 482 555 35,000  Level Jacksonville Center
09:57AM 30.5008 -81.4797 North 482 555 35,000  Level Jacksonville Center
09:58AM 30.6322 -81.4608 North 482 555 35,000  Level Jacksonville Center
09:59AM 30.7678 -81.4372 North 487 560 35,000  Level Jacksonville Center
10:00AM 30.8967 -81.3989 14° North 482 555 35,000  Level Jacksonville Center
10:01AM 31.0128 -81.3219 30° Northeast 474 545 35,000  Level Jacksonville Center
10:02AM 31.1286 -81.2422 30° Northeast 469 540 35,000  Level Jacksonville Center
10:03AM 31.2467 -81.1647 29° Northeast 475 547 35,000  Level Jacksonville Center
10:04AM 31.3625 -81.0872 30° Northeast 480 552 35,000  Level Jacksonville Center
10:05AM 31.4906 -80.9994 30° Northeast 480 552 35,000  Level Jacksonville Center
10:06AM 31.6064 -80.9217 30° Northeast 475 547 35,000 660 Level Jacksonville Center
10:07AM 31.7117 -80.8533 29° Northeast 475 547 36,400 960 Climbing Jacksonville Center
10:08AM 31.8356 -80.7675 30° Northeast 475 547 37,000 300 Climbing Jacksonville Center
10:09AM 31.9492 -80.6914 30° Northeast 475 547 37,000  Level Jacksonville Center
10:10AM 32.0667 -80.6125 30° Northeast 482 555 37,000  Level Jacksonville Center
10:11AM 32.1697 -80.5414 30° Northeast 482 555 37,000  Level Jacksonville Center
10:12AM 32.2850 -80.4597 31° Northeast 477 549 37,000  Level Jacksonville Center
10:13AM 32.3983 -80.3806 31° Northeast 477 549 37,000  Level Jacksonville Center
10:14AM 32.5136 -80.3033 29° Northeast 472 543 37,000  Level Jacksonville Center
10:15AM 32.6228 -80.2239 31° Northeast 467 537 37,000  Level Jacksonville Center
10:16AM 32.7358 -80.1489 29° Northeast 462 532 37,000  Level Jacksonville Center
10:17AM 32.8489 -80.0689 31° Northeast 462 532 37,000  Level Jacksonville Center
10:18AM 32.9619 -79.9861 32° Northeast 462 532 37,000  Level Jacksonville Center
10:19AM 33.0872 -79.8978 31° Northeast 474 545 37,000  Level Jacksonville Center
10:20AM 33.2019 -79.8144 31° Northeast 469 540 37,000  Level Jacksonville Center
10:21AM 33.3128 -79.7336 31° Northeast 469 540 37,000  Level Jacksonville Center
10:22AM 33.4256 -79.6522 31° Northeast 469 540 37,000 780 Level Jacksonville Center
10:23AM 33.5339 -79.5711 32° Northeast 464 534 38,600 900 Climbing Jacksonville Center
10:24AM 33.6444 -79.4897 31° Northeast 464 534 38,900 180 Climbing Jacksonville Center
10:25AM 33.7303 -79.4239 33° Northeast 464 534 39,000  Climbing Jacksonville Center
10:26AM 33.8511 -79.3367 31° Northeast 459 528 38,900  Descending Jacksonville Center
10:27AM 33.9633 -79.2519 32° Northeast 464 534 39,000  Climbing Jacksonville Center
10:29AM 34.2047 -79.0747 31° Northeast 489 563 39,000  Level Washington Center
10:30AM 34.3156 -78.9889 33° Northeast 482 555 39,000 -60 Level Washington Center
10:31AM 34.4328 -78.9056 30° Northeast 482 555 38,900  Descending Washington Center
10:32AM 34.5308 -78.8239 34° Northeast 482 555 39,000  Climbing Washington Center
10:33AM 34.6458 -78.7375 32° Northeast 482 555 39,000  Level Washington Center
10:34AM 34.7714 -78.6414 32° Northeast 482 555 39,000  Level Washington Center
10:35AM 34.8714 -78.5639 32° Northeast 482 555 39,000  Level Washington Center
10:36AM 34.9819 -78.4794 32° Northeast 476 548 39,000  Level Washington Center
10:37AM 35.0925 -78.3944 32° Northeast 471 542 39,000  Level Washington Center
10:38AM 35.2031 -78.3067 33° Northeast 465 535 39,000  Level Washington Center
10:39AM 35.3114 -78.2239 32° Northeast 465 535 39,000  Level Washington Center
10:40AM 35.4217 -78.1383 32° Northeast 465 535 39,000  Level Washington Center
10:41AM 35.5319 -78.0525 32° Northeast 465 535 39,000  Level Washington Center
10:42AM 35.6400 -77.9689 32° Northeast 459 528 39,000  Level Washington Center
10:43AM 35.7481 -77.8853 32° Northeast 459 528 39,000  Level Washington Center
10:44AM 35.8561 -77.8011 32° Northeast 459 528 39,000  Level Washington Center
10:45AM 35.9642 -77.7169 32° Northeast 459 528 39,000  Level Washington Center
10:46AM 36.0658 -77.6244 36° Northeast 459 528 39,000  Level Washington Center
10:47AM 36.1656 -77.5294 38° Northeast 459 528 39,000  Level Washington Center
10:48AM 36.2733 -77.4289 37° Northeast 449 517 39,000  Level Washington Center
10:49AM 36.3750 -77.3306 38° Northeast 449 517 39,000  Level Washington Center
10:50AM 36.4767 -77.2347 37° Northeast 449 517 39,000  Level Washington Center
10:51AM 36.5800 -77.1386 37° Northeast 449 517 39,000  Level Washington Center
10:52AM 36.6836 -77.0422 37° Northeast 449 517 39,000  Level Washington Center
10:53AM 36.7847 -76.9456 37° Northeast 454 522 39,000  Level Washington Center
10:54AM 36.8881 -76.8539 35° Northeast 454 522 39,000  Level Washington Center
10:55AM 36.9911 -76.7619 35° Northeast 454 522 39,000  Level Washington Center
10:56AM 37.0817 -76.6775 37° Northeast 454 522 39,000  Level Washington Center
10:57AM 37.1847 -76.5850 36° Northeast 454 522 39,000  Level Washington Center
10:58AM 37.2814 -76.4925 37° Northeast 454 522 39,000  Level Washington Center
10:59AM 37.3819 -76.4072 34° Northeast 454 522 39,000  Level Washington Center
11:00AM 37.4933 -76.3039 36° Northeast 454 522 39,000  Level Washington Center
11:01AM 37.5814 -76.2233 36° Northeast 454 522 39,000 -60 Level Washington Center
11:02AM 37.6903 -76.1297 34° Northeast 444 511 38,900 -60 Descending Washington Center
11:03AM 37.7697 -76.0567 36° Northeast 438 504 38,900  Level Washington Center
11:04AM 37.8764 -75.9522 38° Northeast 438 504 39,000  Climbing Washington Center
11:05AM 37.9747 -75.8553 38° Northeast 438 504 39,000  Level Washington Center
11:06AM 38.0750 -75.7631 36° Northeast 438 504 39,000  Level Washington Center
11:07AM 38.1711 -75.6736 36° Northeast 438 504 39,000  Level Washington Center
11:08AM 38.2794 -75.5678 37° Northeast 438 504 39,000 -60 Level Washington Center
11:09AM 38.3775 -75.4989 29° Northeast 438 504 38,900 -60 Descending Washington Center
11:10AM 38.4878 -75.4511 19° North 421 484 38,900  Level Washington Center
11:11AM 38.6044 -75.4058 17° North 421 484 38,900  Level Washington Center
11:12AM 38.7169 -75.3603 18° North 421 484 38,900  Level Washington Center
11:13AM 38.8233 -75.2906 27° Northeast 421 484 39,000  Climbing Washington Center
11:14AM 38.9189 -75.1942 38° Northeast 421 484 38,900 -60 Descending Washington Center
11:15AM 39.0144 -75.0975 38° Northeast 431 496 38,900  Level Washington Center
11:16AM 39.1097 -75.0031 38° Northeast 431 496 38,900  Level Washington Center
11:17AM 39.2053 -74.9114 37° Northeast 431 496 39,000  Climbing Washington Center
11:18AM 39.3006 -74.8192 37° Northeast 431 496 38,900  Descending Washington Center
11:19AM 39.3958 -74.7242 38° Northeast 431 496 39,000  Climbing Washington Center
11:20AM 39.5756 -74.5522 36° Northeast 430 495 38,900 -600 Descending New York Center
11:21AM 39.6508 -74.4808 36° Northeast 425 489 37,500 -2,100 Descending New York Center
11:22AM 39.7458 -74.3725 41° Northeast 420 483 34,700 -2,580 Descending New York Center
11:23AM 39.8364 -74.2797 38° Northeast 420 483 32,400 -2,520 Descending New York Center
11:24AM 39.9350 -74.1819 37° Northeast 414 476 29,800 -2,340 Descending New York Center
11:25AM 40.0186 -74.0992 37° Northeast 395 455 27,700 -2,160 Descending New York Center
11:26AM 40.1025 -74.0136 38° Northeast 381 438 25,600 -1,380 Descending New York Center
11:27AM 40.1775 -73.9358 38° Northeast 369 425 25,000 -300 Descending New York Center
11:28AM 40.2589 -73.8581 36° Northeast 356 410 25,000  Level New York Center
11:29AM 40.3400 -73.7772 37° Northeast 373 429 25,000  Level New York Center
11:31AM 40.5253 -73.5786 39° Northeast 407 468 25,000 -300 Level Boston Center
11:32AM 40.6136 -73.4872 38° Northeast 407 468 24,200 -1,680 Descending Boston Center
11:33AM 40.6958 -73.3981 39° Northeast 395 455 21,700 -2,340 Descending Boston Center
11:34AM 40.7672 -73.3333 34° Northeast 389 448 19,600 -1,380 Descending Boston Center
11:35AM 40.8511 -73.2386 40° Northeast 377 434 19,000 -300 Descending Boston Center
11:36AM 40.9289 -73.1461 42° Northeast 371 427 19,000  Level Boston Center
11:37AM 41.0067 -73.0589 40° Northeast 366 421 19,000 -540 Level Boston Center
11:38AM 41.0861 -72.9633 42° Northeast 366 421 18,000 -1,440 Descending Boston Center
11:39AM 41.1617 -72.8731 42° Northeast 366 421 16,200 -2,340 Descending Boston Center
11:40AM 41.2392 -72.7825 41° Northeast 366 421 13,400 -2,820 Descending Boston Center
11:41AM 41.3122 -72.7164 34° Northeast 353 406 11,100 -1,920 Descending Boston Center
11:42AM 41.4039 -72.7500 345° North 357 411 10,100 -960 Descending Boston Center
11:42AM 41.4142 -72.7500 360° North 319 367 10,000 -480 Descending Boston Center
11:43AM 41.4975 -72.7756 347° North 309 356 9,500 -720 Descending Boston Center
11:44AM 41.5828 -72.7953 350° North 294 338 8,600 -900 Descending Boston Center
11:45AM 41.6369 -72.8067 351° North 252 290 8,000 -720 Descending Boston Center
11:46AM 41.7036 -72.8294 346° North 247 284 7,400 -900 Descending Boston Center
11:47AM 41.7619 -72.8631 337° Northwest 227 261 6,200 -1,320 Descending Boston Center
11:48AM 41.8244 -72.8356 18° North 195 224 4,600 -1,380 Descending Boston Center
11:49AM 41.8581 -72.7969 41° Northeast 162 186 3,300 -1,380 Descending Boston Center
11:50AM 41.8853 -72.7608 45° Northeast 139 160 1,900 -1,320 Descending Boston Center
11:51AM 41.9103 -72.7303 42° Northeast 136 157 800 -720 Descending Boston Center
11:52AM 41.9375 -72.6942 45° Northeast 130 150 500 -300 Descending Boston Center
11:57AM 41.9333 -72.6833 45° Northeast  Level FlightAware Approximate
12:04PM 41.9392 -72.6834 45° Northeast  Level Estimated